Wind_Speed
21 21 21 22 22 23 25 25 25 26 27 29 30 30 30 32 32 33 35 35 36 38 39 39 39 40 42 42 43 42 42 41 41 42 43 43 42 42 41 41 41 41 41 41
20 20 21 22 23 23 24 25 25 26 27 29 30 30 29 30 31 32 33 35 37 39 40 40 40 40 43 44 45 44 45 44 44 43 43 44 44 43 42 43 43 42 42 42
20 20 21 21 22 23 23 24 24 25 26 28 30 30 29 29 31 32 33 35 37 38 40 41 41 42 43 44 45 46 45 46 46 44 44 44 45 45 45 44 44 44 45 44
20 20 21 21 21 22 23 24 24 25 27 28 30 31 29 31 32 33 34 34 36 38 40 42 42 42 43 44 46 46 46 47 47 47 47 46 46 45 45 45 44 44 44 44
19 20 21 21 21 22 23 24 25 25 27 28 28 31 30 30 31 32 33 34 36 38 40 42 43 44 44 45 45 46 47 47 47 47 48 48 47 46 46 46 45 45 45 45
18 19 20 21 21 21 22 23 24 25 26 27 27 29 29 28 30 31 32 33 34 36 38 40 41 43 44 44 45 46 47 48 48 48 49 49 48 47 47 47 47 46 46 46
17 18 18 19 20 20 21 22 23 25 25 26 26 27 27 27 28 30 31 32 33 34 35 37 39 40 41 41 42 44 47 48 48 48 48 50 49 48 48 48 47 46 47 46
17 17 17 18 19 20 21 21 22 23 24 24 24 25 25 26 28 29 30 31 32 33 34 35 36 38 39 40 41 43 45 46 47 48 47 48 48 49 48 47 46 46 47 47
17 17 18 19 19 19 19 19 21 22 23 24 23 23 23 24 26 27 29 31 31 32 32 33 34 35 35 38 40 41 43 44 44 45 46 46 46 47 47 47 46 46 46 48
17 18 18 19 20 20 20 20 20 22 24 25 24 23 22 22 24 26 28 29 31 32 32 32 33 34 34 36 37 39 40 41 42 44 45 45 44 45 46 47 46 45 46 46
18 19 19 20 20 20 20 21 23 24 25 26 26 24 23 24 25 26 27 29 30 30 31 31 32 33 34 35 36 37 39 40 42 43 43 43 43 43 44 45 46 46 46 46
19 19 19 20 20 21 22 23 24 25 26 26 27 26 24 25 26 27 27 28 29 30 31 31 31 31 32 33 35 36 38 39 40 42 42 41 41 41 43 43 44 45 45 45
20 20 20 20 21 22 23 23 24 25 26 27 27 27 26 26 26 27 27 27 29 30 30 30 30 30 30 31 31 33 34 35 37 40 40 39 40 41 42 42 44 45 44 44
21 21 22 22 22 23 24 24 25 27 28 28 26 26 26 27 27 27 27 27 27 28 29 29 30 30 30 31 31 32 31 33 35 37 39 38 39 39 41 41 43 44 43 43
22 22 23 24 24 25 25 25 26 28 28 28 26 26 26 26 26 26 27 27 27 27 28 29 30 31 31 32 32 32 31 32 34 36 36 38 38 38 38 39 40 41 41 42
23 24 24 25 25 26 26 26 26 27 27 27 27 26 25 25 26 26 26 26 27 27 27 27 27 28 28 29 29 30 31 32 32 33 34 35 36 38 38 39 38 38 38 40
24 25 25 25 25 26 25 25 25 25 25 26 26 25 24 24 25 25 24 24 26 26 26 27 27 27 27 28 28 28 29 30 30 30 31 33 33 35 35 36 36 35 35 37
25 25 26 26 26 26 25 25 26 26 25 25 25 24 24 25 25 25 25 25 25 26 26 27 27 27 28 28 28 29 29 28 29 30 31 32 33 34 34 35 34 34 34 34
24 25 26 26 26 26 24 24 25 25 24 24 25 25 25 26 26 26 27 27 26 26 27 27 27 27 28 28 27 27 28 28 28 29 30 31 32 32 33 33 33 33 33 33
24 25 25 26 26 26 24 25 26 26 25 25 25 26 26 26 26 27 28 28 27 27 27 27 27 27 28 28 28 28 28 28 28 29 29 29 30 30 31 31 31 31 31 31
25 25 25 26 27 26 26 27 27 27 27 27 26 26 27 27 27 27 28 28 28 27 27 27 27 27 27 27 28 29 29 29 29 29 28 28 28 28 29 30 30 30 30 30
25 26 26 27 28 27 27 28 28 28 28 28 28 28 29 29 30 29 29 28 28 27 26 26 26 27 28 28 29 28 28 29 29 29 28 28 28 29 29 29 29 30 30 30
26 26 27 27 27 27 28 28 29 29 29 29 29 29 30 30 31 31 30 30 30 29 29 28 28 28 28 29 29 29 29 29 29 28 29 29 28 29 28 28 29 29 30 31
27 27 28 28 27 28 29 29 30 30 30 30 30 30 30 30 30 30 31 30 30 30 30 29 29 29 29 29 29 30 29 28 28 28 28 28 28 28 28 28 28 29 30 30
28 28 29 29 28 28 29 30 31 31 31 31 31 30 30 30 30 29 29 29 29 30 30 30 30 29 29 29 29 29 28 28 28 28 28 27 28 28 28 28 28 29 29 29
28 29 30 30 29 29 29 30 31 31 31 31 31 30 30 30 29 29 28 28 29 29 29 29 29 29 29 30 30 29 29 29 28 28 28 27 27 27 28 27 27 28 28 28
Wind_Direction
276 275 272 271 272 272 270 271 270 267 265 264 264 264 263 261 262 259 256 254 251 249 250 250 251 252 251 250 249 248 249 250 249 250 251 252 254 256 257 259 262 263 264 264
276 276 277 274 273 273 274 273 274 271 269 268 267 266 266 263 263 263 261 257 254 253 252 253 253 252 250 250 250 250 250 250 251 252 252 253 253 256 258 261 262 263 265 264
276 277 275 275 273 272 274 276 277 276 274 272 270 267 264 265 265 266 265 261 258 257 254 253 253 252 252 251 251 251 252 251 251 251 253 253 255 256 258 261 263 264 265 264
276 275 274 274 273 273 274 277 279 278 277 277 277 273 267 268 268 267 267 265 261 259 256 255 255 254 253 253 253 253 252 252 251 251 253 255 256 257 259 261 264 265 264 265
277 275 274 275 277 278 277 278 280 280 280 279 279 280 274 272 273 271 269 267 264 262 259 257 257 256 256 255 254 252 251 251 251 252 253 255 255 257 259 261 264 264 264 265
279 278 278 279 279 280 280 280 280 282 284 282 281 282 280 278 276 275 271 267 266 264 261 259 259 258 257 256 255 253 252 252 252 253 254 255 255 255 257 260 263 264 263 264
281 283 283 282 281 281 282 283 285 285 287 287 286 284 284 283 281 278 274 271 268 265 263 261 260 260 259 258 256 255 253 253 253 253 254 255 255 256 257 259 262 262 262 262
285 285 284 285 286 286 286 285 287 291 292 292 287 286 287 287 285 282 277 276 273 271 267 264 262 262 260 259 259 257 255 253 253 253 255 255 256 257 259 259 260 261 261 261
287 286 285 284 287 290 289 288 288 290 291 291 289 289 289 287 285 284 280 280 278 274 271 265 263 264 263 261 259 259 256 255 255 254 256 257 257 258 259 259 260 261 262 262
288 285 284 285 286 287 287 287 289 291 294 294 291 289 291 289 289 287 284 284 282 277 273 269 267 265 264 263 261 259 257 256 255 255 255 256 258 259 259 258 259 260 262 263
287 285 284 285 286 289 288 286 288 289 291 293 295 293 292 289 290 288 286 287 286 281 276 272 269 269 267 266 264 262 259 257 256 256 256 257 259 260 259 259 259 261 262 263
290 289 288 288 287 287 287 288 290 290 291 291 291 291 291 290 290 290 289 289 289 284 278 275 273 270 268 266 265 264 263 261 259 257 256 257 259 261 261 259 260 261 262 263
290 290 290 290 289 288 289 291 292 292 291 289 288 290 293 293 291 292 291 289 288 286 281 279 278 275 271 268 267 266 265 263 261 259 256 256 259 261 261 261 261 262 264 265
289 289 288 290 292 293 293 293 292 291 291 290 289 290 291 292 291 292 293 291 288 286 283 279 276 276 273 272 271 269 266 264 262 260 257 258 260 262 261 262 262 262 263 264
290 288 287 287 288 291 293 292 292 291 290 290 291 290 293 293 291 291 292 292 289 288 285 281 277 275 273 273 273 270 268 265 263 260 258 259 260 260 261 262 263 261 262 263
293 291 289 288 289 289 291 293 293 293 293 291 291 291 292 292 291 291 292 293 292 291 287 284 281 279 276 275 275 274 271 268 265 262 261 260 260 260 260 261 261 262 262 262
294 294 292 290 289 290 292 296 297 297 296 294 293 295 294 292 291 290 292 293 293 293 290 288 287 283 280 278 277 274 272 271 269 265 264 263 262 261 261 260 261 263 264 264
294 295 293 291 290 291 296 296 297 298 297 296 295 293 293 294 294 294 294 296 294 294 292 291 289 286 283 280 279 279 277 273 271 270 271 267 263 262 262 262 264 266 267 267
294 296 296 295 294 294 295 297 299 298 297 296 295 294 293 295 295 294 295 296 297 296 296 295 293 288 285 282 281 280 279 275 274 276 274 270 267 265 263 263 264 266 267 268
293 294 295 295 295 296 297 297 298 298 297 295 294 293 293 293 294 295 296 295 296 295 295 296 295 291 287 284 282 280 278 276 278 279 277 275 272 270 267 266 266 267 268 269
293 293 294 294 294 295 295 296 297 297 296 295 293 292 291 290 292 294 295 295 296 295 293 293 293 291 288 286 284 283 281 279 280 280 278 278 275 273 271 269 268 268 267 268
294 294 294 295 295 295 293 295 296 296 295 294 292 291 290 289 290 291 291 292 293 294 292 291 291 291 290 288 287 286 284 283 281 279 278 277 275 273 271 269 269 269 269 269
292 294 293 294 294 292 291 293 294 293 293 293 291 291 291 290 290 290 290 291 291 291 292 292 292 292 291 289 288 288 287 285 283 280 278 276 274 274 271 269 268 268 268 267
291 292 292 292 292 289 289 290 292 291 291 291 292 293 293 292 292 291 292 292 292 291 292 292 293 292 291 291 290 289 287 284 282 280 278 276 275 275 273 270 268 268 268 266
292 291 291 291 291 289 289 290 291 292 292 291 292 294 294 293 293 293 292 291 291 292 293 292 292 293 292 291 292 292 288 284 282 280 279 278 277 276 274 271 269 268 268 267
293 292 292 292 291 290 290 290 291 292 293 292 293 294 294 294 293 292 291 290 290 292 293 293 293 294 293 292 292 291 288 286 284 282 280 278 277 276 274 271 270 268 268 266
Height
5687 5688 5687 5686 5686 5686 5685 5685 5686 5686 5686 5686 5687 5689 5691 5691 5691 5693 5694 5696 5699 5701 5704 5706 5709 5712 5715 5718 5720 5723 5725 5727 5729 5731 5734 5736 5739 5741 5743 5744 5745 5746 5747 5747
5683 5683 5682 5681 5681 5680 5680 5680 5680 5680 5680 5680 5681 5682 5684 5683 5684 5684 5685 5687 5689 5691 5694 5697 5699 5702 5705 5707 5710 5713 5716 5718 5720 5723 5725 5728 5730 5732 5734 5735 5736 5736 5737 5738
5678 5679 5677 5676 5676 5675 5674 5674 5674 5674 5674 5673 5673 5676 5677 5677 5676 5676 5677 5678 5680 5682 5684 5687 5689 5691 5694 5697 5699 5702 5705 5708 5711 5713 5715 5718 5720 5722 5724 5725 5726 5726 5727 5728
5673 5673 5672 5671 5671 5670 5669 5669 5668 5667 5667 5667 5667 5666 5671 5669 5668 5668 5669 5669 5670 5672 5674 5676 5679 5680 5683 5685 5688 5690 5693 5696 5700 5702 5705 5707 5709 5711 5713 5715 5716 5716 5717 5718
5669 5668 5667 5667 5666 5665 5664 5663 5662 5661 5660 5661 5661 5658 5662 5661 5660 5660 5660 5660 5660 5661 5663 5665 5667 5669 5671 5673 5675 5677 5680 5684 5687 5691 5694 5696 5698 5701 5702 5704 5705 5706 5707 5707
5664 5664 5663 5662 5661 5660 5659 5659 5658 5656 5655 5655 5656 5653 5654 5654 5653 5652 5651 5651 5651 5651 5652 5654 5655 5657 5658 5660 5662 5664 5667 5671 5675 5679 5681 5684 5687 5689 5691 5693 5694 5695 5696 5697
5661 5660 5659 5658 5657 5657 5655 5655 5653 5651 5650 5650 5649 5647 5648 5648 5646 5644 5643 5643 5642 5642 5643 5644 5645 5645 5647 5648 5650 5652 5655 5658 5662 5666 5669 5671 5674 5677 5680 5682 5683 5684 5685 5686
5656 5656 5656 5654 5653 5652 5651 5650 5650 5647 5645 5644 5643 5642 5643 5641 5639 5637 5636 5635 5634 5634 5634 5634 5635 5635 5636 5637 5638 5640 5642 5646 5650 5654 5657 5660 5662 5665 5667 5669 5671 5672 5673 5674
5653 5652 5651 5650 5649 5648 5647 5646 5645 5643 5640 5639 5638 5637 5637 5635 5633 5631 5630 5629 5627 5626 5625 5625 5625 5625 5625 5626 5627 5629 5631 5634 5638 5641 5645 5648 5650 5653 5655 5657 5658 5660 5661 5662
5649 5648 5648 5646 5645 5644 5643 5642 5640 5638 5635 5633 5633 5632 5631 5629 5626 5625 5624 5622 5620 5619 5617 5617 5616 5616 5616 5615 5616 5618 5620 5623 5626 5630 5633 5636 5638 5641 5643 5645 5647 5648 5650 5651
5645 5644 5644 5642 5641 5640 5639 5638 5635 5633 5631 5629 5627 5629 5625 5623 5621 5619 5618 5616 5613 5612 5610 5609 5608 5608 5607 5607 5607 5608 5610 5613 5615 5618 5621 5624 5626 5628 5631 5633 5635 5637 5638 5639
5641 5640 5639 5638 5636 5635 5633 5632 5630 5628 5626 5623 5621 5624 5620 5618 5615 5613 5611 5609 5607 5605 5603 5602 5601 5600 5599 5598 5598 5600 5601 5602 5604 5607 5609 5612 5615 5617 5619 5621 5623 5625 5626 5627
5636 5635 5634 5633 5634 5631 5629 5627 5625 5622 5620 5618 5616 5618 5615 5612 5610 5607 5605 5602 5600 5598 5596 5595 5594 5593 5592 5591 5591 5591 5591 5592 5593 5595 5598 5601 5604 5606 5608 5610 5611 5613 5614 5615
5631 5630 5630 5629 5627 5625 5623 5622 5619 5617 5614 5612 5611 5610 5609 5606 5603 5600 5597 5595 5592 5590 5589 5588 5586 5585 5585 5584 5583 5582 5582 5583 5584 5585 5588 5590 5593 5595 5597 5598 5599 5600 5602 5603
5626 5626 5624 5623 5621 5619 5618 5616 5613 5611 5608 5606 5605 5603 5602 5599 5596 5594 5591 5588 5586 5584 5582 5580 5579 5578 5577 5576 5575 5575 5574 5574 5575 5576 5578 5580 5582 5584 5585 5586 5588 5589 5590 5591
5621 5620 5619 5618 5616 5613 5612 5610 5608 5605 5602 5600 5598 5597 5596 5592 5590 5587 5585 5582 5580 5577 5575 5573 5571 5570 5569 5568 5567 5567 5566 5566 5566 5567 5569 5570 5572 5573 5575 5576 5577 5578 5579 5580
5615 5614 5612 5611 5609 5607 5606 5606 5602 5599 5597 5594 5592 5592 5589 5586 5584 5581 5579 5577 5574 5571 5569 5566 5564 5563 5562 5561 5560 5559 5558 5558 5558 5559 5560 5561 5561 5563 5564 5565 5566 5567 5568 5570
5610 5608 5605 5604 5603 5601 5604 5599 5596 5593 5591 5589 5586 5585 5582 5580 5578 5575 5573 5571 5568 5565 5563 5560 5558 5556 5555 5554 5552 5551 5550 5549 5549 5550 5551 5551 5552 5553 5554 5555 5556 5557 5558 5559
5604 5602 5599 5598 5595 5595 5596 5593 5590 5587 5586 5583 5580 5578 5576 5573 5571 5570 5567 5564 5562 5559 5557 5554 5552 5550 5548 5547 5545 5544 5543 5542 5542 5542 5541 5542 5542 5543 5544 5545 5547 5548 5548 5549
5598 5596 5594 5591 5589 5588 5590 5587 5582 5581 5579 5577 5574 5572 5569 5567 5565 5564 5561 5558 5556 5553 5550 5548 5545 5543 5541 5540 5538 5537 5536 5535 5534 5534 5533 5533 5533 5534 5535 5536 5537 5537 5538 5540
5592 5590 5588 5585 5582 5582 5583 5579 5577 5576 5574 5570 5567 5565 5562 5560 5559 5557 5554 5551 5549 5546 5544 5541 5539 5537 5535 5533 5532 5530 5529 5528 5527 5526 5526 5525 5525 5525 5526 5527 5528 5528 5530 5531
5585 5584 5582 5579 5577 5578 5575 5572 5570 5568 5565 5562 5559 5557 5555 5553 5551 5549 5547 5545 5542 5540 5537 5535 5532 5530 5528 5526 5524 5523 5521 5520 5519 5518 5518 5517 5517 5517 5517 5518 5519 5520 5521 5522
5579 5578 5575 5573 5573 5570 5567 5564 5562 5560 5557 5555 5552 5550 5547 5545 5543 5541 5539 5537 5535 5532 5530 5528 5525 5523 5521 5518 5517 5515 5513 5512 5511 5510 5509 5509 5508 5508 5509 5509 5510 5511 5512 5513
5573 5570 5568 5566 5565 5562 5559 5557 5555 5552 5549 5547 5544 5542 5539 5537 5535 5533 5531 5529 5527 5524 5522 5520 5517 5515 5513 5510 5508 5507 5505 5504 5502 5502 5501 5500 5500 5500 5500 5500 5501 5502 5503 5504
5566 5563 5560 5558 5557 5555 5553 5550 5547 5544 5542 5539 5537 5535 5532 5529 5527 5524 5522 5521 5519 5517 5514 5512 5509 5507 5505 5502 5500 5498 5496 5495 5493 5493 5492 5491 5491 5491 5491 5491 5492 5493 5494 5495
5559 5555 5552 5551 5549 5546 5545 5542 5539 5537 5534 5532 5529 5527 5524 5521 5519 5517 5514 5512 5511 5509 5506 5504 5501 5499 5497 5494 5491 5489 5487 5486 5484 5483 5483 5483 5482 5482 5482 5483 5484 5484 5485 5486